GFSNGP_850_dewp_051.txt.gz
Dewpoint
2 2 3 3 2 2 1 2 4 1 1 0 1 3 3 4 2 3 3 3 3 3 3 4 3 6 5 6 6 7 7 7 7 5 4 4 2 1 1 0 -4 -3 -1 1
2 2 3 3 2 2 3 2 2 2 3 2 3 3 3 4 5 4 5 4 4 4 4 5 5 5 4 4 4 5 6 5 4 2 2 0 -2 -2 -3 -3 -2 -1 -2 -2
3 2 2 4 3 3 3 3 3 6 5 5 5 4 4 5 4 4 3 5 3 3 4 4 3 2 1 0 1 2 1 0 -2 -3 -4 -6 -4 -2 -4 -3 -3 -6 -7 -11
3 3 6 2 1 2 4 4 5 5 5 4 5 4 4 1 2 1 3 4 3 1 0 -1 -0 -1 -1 -1 -2 -3 -5 -6 -7 -7 -4 -1 -3 -3 -2 -2 -0 -6 -12 -8
5 5 2 2 4 3 4 6 5 5 4 5 4 5 4 -0 -1 -1 -0 -1 0 1 1 -0 -2 -4 -3 -5 -6 -7 -8 -7 -3 -1 -5 -4 -4 -4 -7 -6 -5 -6 -12 -14
4 4 5 3 2 2 4 8 5 4 5 4 4 7 4 1 -1 -3 -2 -2 -3 -3 -3 -4 -6 -5 -5 -6 -5 -4 -4 -1 -4 -2 -3 -5 -5 -1 -1 -6 -8 -12 -15 -14
3 5 3 -0 2 4 7 5 3 4 6 4 5 4 1 1 -1 -3 -4 -4 -5 -6 -5 -5 -5 -5 -4 -2 -1 -1 -2 -0 -0 0 0 0 -0 -3 -4 -10 -15 -15 -14 -14
4 6 4 -1 4 5 3 3 3 4 4 3 2 -0 -1 0 -0 -0 -1 -2 -2 -3 -4 -3 -2 -1 -0 -1 -0 0 -0 -0 -0 -1 -1 -3 -3 -11 -16 -16 -16 -13 -15 -20
3 2 -2 -1 1 2 2 2 2 3 4 4 2 -1 -2 -2 -1 0 0 -1 -1 -1 -1 -1 -1 -0 -0 -0 -0 -0 -2 -8 -6 -1 -2 -13 -16 -17 -17 -15 -13 -17 -22 -23
3 2 1 0 2 2 2 1 1 1 3 4 3 0 -3 -3 -3 -2 -1 -0 -0 -1 -1 -1 -0 0 1 -2 -7 -7 -1 -0 -2 -10 -13 -17 -18 -17 -14 -14 -20 -23 -23 -24
3 2 2 2 2 1 1 1 1 0 1 5 4 2 -1 -4 -4 -5 -4 -4 -3 -2 -2 -3 -3 -2 -2 -2 -0 -0 -2 -8 -10 -13 -18 -18 -17 -13 -15 -21 -22 -23 -24 -27
4 2 2 2 2 1 1 0 -0 1 2 4 4 3 2 1 -0 -3 -5 -6 -5 -4 -5 -5 -3 -0 -1 -3 -5 -6 -8 -10 -15 -18 -18 -16 -13 -17 -21 -22 -23 -25 -27 -28
2 2 2 2 2 1 0 -0 -0 1 3 4 3 2 2 -2 -2 -1 -1 -1 -1 -1 -2 -2 -5 -7 -9 -9 -9 -8 -9 -16 -19 -18 -15 -13 -17 -22 -22 -23 -24 -26 -26 -22
2 2 2 2 2 1 0 0 -0 0 1 2 2 2 1 0 -4 -3 -3 -3 -5 -7 -7 -8 -9 -10 -9 -9 -8 -11 -18 -19 -18 -14 -13 -18 -21 -22 -23 -25 -27 -27 -24 -22
3 2 2 2 2 1 1 -0 -0 -1 -1 -1 -1 -0 0 -2 -1 -2 -4 -7 -8 -6 -8 -9 -9 -8 -9 -9 -13 -18 -20 -18 -13 -13 -19 -22 -22 -23 -25 -27 -26 -24 -23 -21
2 2 2 2 1 1 0 -1 -1 -3 -3 -3 -3 -3 -2 -2 -4 -3 -7 -7 -6 -7 -8 -8 -7 -8 -10 -13 -18 -19 -17 -12 -15 -20 -22 -22 -23 -25 -27 -26 -24 -22 -20 -18
3 2 2 1 1 -0 -1 -1 -2 -2 -3 -3 -3 -4 -4 -5 -5 -6 -6 -4 -6 -7 -8 -7 -6 -9 -13 -18 -19 -15 -12 -16 -20 -22 -22 -23 -25 -26 -26 -24 -22 -20 -19 -18
3 3 2 2 2 0 -0 -2 -2 -2 -3 -3 -2 -3 -5 -5 -5 -4 -5 -7 -8 -8 -8 -7 -8 -13 -18 -18 -14 -12 -17 -20 -22 -22 -23 -25 -27 -26 -24 -22 -20 -18 -18 -17
2 2 2 2 1 1 -0 -0 -1 -1 -2 -1 -3 -3 -4 -5 -5 -6 -7 -7 -7 -6 -8 -11 -15 -18 -17 -14 -12 -17 -20 -21 -22 -23 -24 -27 -27 -24 -22 -20 -18 -17 -17 -17
1 1 3 3 2 2 2 2 1 -2 -1 -2 -1 -2 -4 -5 -6 -6 -7 -7 -6 -7 -9 -14 -17 -16 -14 -12 -17 -20 -21 -21 -22 -24 -27 -27 -24 -22 -20 -18 -18 -17 -17 -16
1 2 4 3 3 2 3 3 2 -1 -1 -1 -1 -2 -3 -5 -7 -6 -6 -6 -8 -11 -14 -16 -15 -14 -12 -17 -20 -21 -21 -22 -24 -27 -27 -25 -22 -20 -19 -18 -17 -17 -16 -16
1 1 1 2 2 3 2 2 -0 -1 -1 -2 -3 -3 -4 -5 -6 -6 -6 -7 -10 -12 -15 -15 -14 -12 -17 -20 -21 -21 -21 -23 -27 -27 -26 -23 -20 -19 -18 -18 -17 -17 -17 -17
0 0 0 0 1 1 1 -0 -1 -2 -2 -3 -3 -4 -4 -5 -6 -6 -8 -10 -11 -13 -15 -14 -11 -16 -19 -21 -21 -21 -22 -27 -28 -27 -23 -21 -20 -19 -18 -17 -17 -17 -17 -17
-0 -0 -1 -1 -1 -1 -1 -1 -1 -2 -4 -4 -4 -5 -5 -6 -6 -7 -9 -10 -12 -14 -14 -12 -14 -18 -21 -21 -21 -21 -26 -28 -27 -24 -21 -20 -19 -18 -18 -17 -17 -16 -16 -16
-1 -1 -1 -1 -2 -2 -2 -2 -2 -3 -5 -5 -5 -6 -6 -7 -8 -8 -10 -11 -13 -13 -13 -13 -17 -20 -21 -20 -21 -24 -28 -28 -26 -22 -20 -19 -19 -18 -18 -17 -16 -16 -17 -17
-1 -1 -2 -3 -3 -3 -3 -3 -4 -5 -6 -6 -6 -7 -7 -7 -8 -9 -11 -12 -13 -13 -12 -16 -19 -21 -20 -20 -23 -28 -28 -27 -23 -20 -19 -19 -18 -18 -18 -16 -16 -17 -17 -18
-1 -1 -2 -3 -3 -3 -4 -4 -5 -6 -6 -6 -7 -7 -7 -8 -9 -10 -11 -12 -13 -12 -16 -18 -20 -20 -20 -21 -27 -28 -27 -23 -21 -19 -19 -19 -18 -18 -16 -16 -17 -18 -18 -18

GFSNGP_850_dewp_054.txt.gz
Dewpoint
2 2 2 2 2 2 2 2 2 1 1 -1 -2 -2 1 4 4 4 5 5 5 4 3 4 5 3 3 4 6 6 7 8 8 8 8 6 6 5 4 1 -0 -1 -1 -6
2 1 2 3 3 2 2 1 1 1 1 -2 -1 4 4 4 3 4 3 3 4 4 4 5 4 4 3 3 2 3 3 3 4 4 3 2 2 1 -0 -2 -4 -4 -2 -0
2 1 2 3 3 2 2 1 1 3 1 1 5 5 4 1 1 1 1 4 5 3 4 3 2 2 2 1 -0 -0 -0 -1 -1 -0 1 0 -1 -2 -3 -2 -1 -0 -1 -2
3 3 5 1 1 1 2 1 2 3 4 4 4 4 1 0 -1 -1 0 -1 -1 -0 -0 -1 -1 -1 -1 0 0 0 -2 -2 -3 -1 -2 -3 -3 -1 -1 -1 -2 -3 -2 -1
4 4 1 2 4 4 4 4 4 5 5 4 5 4 2 2 -2 -2 -2 -0 -1 -3 -2 -1 -0 0 1 1 1 -0 -4 -6 -6 -4 -4 -2 -0 -0 -1 -2 -1 -1 -1 -7
5 3 4 2 2 3 3 6 4 4 4 5 4 7 5 1 -1 -3 -4 -3 -2 -2 -3 -2 -3 -3 -2 -2 -4 -6 -7 -6 -3 -0 -0 0 -0 -1 -0 -0 -0 -3 -13 -14
4 4 2 -1 -1 4 6 3 3 4 4 4 4 4 2 1 -1 -3 -4 -5 -5 -5 -4 -4 -4 -3 -4 -5 -2 -1 -1 0 -0 -0 -0 -0 -1 -0 -0 -3 -14 -14 -14 -15
4 5 3 -2 4 5 2 2 3 4 4 3 2 1 1 1 -0 -2 -3 -3 -4 -5 -5 -4 -5 -4 -1 -1 -1 -1 -1 -0 -0 -1 -1 -1 -0 -6 -14 -14 -14 -14 -16 -20
2 2 -2 -1 -0 1 2 2 2 3 4 4 1 0 1 1 1 -0 -0 -1 -2 -2 -2 -2 -2 -0 -0 -1 -1 -1 -1 -1 -0 -0 -2 -10 -14 -15 -16 -14 -14 -17 -21 -22
2 2 1 1 1 1 2 1 1 1 3 4 2 0 -1 1 1 1 0 -1 -1 -1 -1 -1 -1 -0 0 -1 -1 -0 -0 -0 -1 -10 -14 -15 -16 -16 -14 -14 -20 -22 -22 -24
3 2 1 2 2 2 1 1 0 0 2 4 3 1 0 -0 0 0 0 -0 -0 0 0 0 0 -0 -1 -2 -2 -1 -1 -7 -13 -15 -16 -17 -16 -14 -16 -20 -22 -22 -24 -26
4 2 2 2 2 2 1 0 -0 1 2 4 4 3 -1 -1 -1 -1 -0 -0 -0 0 0 0 -0 -0 -1 -1 -1 -2 -9 -12 -15 -17 -18 -16 -13 -16 -20 -22 -23 -24 -26 -24
2 2 2 2 2 2 1 0 0 1 3 4 4 4 -0 -0 -2 -3 -3 -2 -1 -2 -1 -1 -0 -1 -2 -3 -6 -8 -9 -13 -18 -19 -16 -13 -19 -22 -22 -23 -24 -25 -24 -22
3 2 2 2 2 1 1 1 0 1 3 4 3 2 2 2 0 -2 -2 -4 -3 -2 -2 -1 -2 -5 -8 -9 -9 -9 -14 -19 -18 -14 -14 -21 -22 -22 -23 -24 -26 -26 -24 -23
3 3 2 2 2 2 1 0 -0 0 1 2 2 2 1 2 1 0 -0 -3 -3 -2 -2 -4 -8 -8 -9 -8 -10 -15 -19 -17 -13 -16 -21 -22 -22 -23 -25 -26 -26 -25 -23 -20
3 2 2 2 2 1 1 -0 -0 -1 -1 -0 -0 0 -0 0 0 -1 -2 -1 -3 -5 -7 -7 -8 -8 -9 -12 -17 -19 -16 -13 -17 -21 -22 -22 -23 -24 -26 -26 -24 -22 -21 -20
2 3 2 2 2 1 1 0 -1 -2 -2 -2 -2 -1 -2 -2 -1 -3 -5 -7 -5 -6 -7 -8 -8 -9 -13 -18 -19 -16 -13 -17 -21 -22 -22 -23 -24 -27 -26 -24 -22 -21 -19 -18
1 1 3 2 2 2 0 -1 -1 -2 -3 -3 -3 -3 -2 -1 -3 -5 -6 -7 -7 -8 -9 -9 -9 -12 -17 -18 -15 -12 -17 -20 -21 -21 -22 -24 -28 -26 -24 -22 -21 -19 -19 -18
1 2 2 2 2 2 1 -0 -1 -2 -2 -3 -2 -2 -2 -2 -4 -6 -6 -7 -8 -8 -9 -9 -12 -17 -18 -15 -12 -17 -20 -21 -21 -22 -24 -28 -26 -24 -22 -20 -19 -18 -18 -17
1 1 2 2 2 1 1 -0 -0 -1 -1 -1 -1 -3 -4 -5 -6 -4 -6 -8 -8 -7 -7 -10 -15 -18 -15 -12 -16 -19 -21 -21 -21 -24 -28 -27 -25 -22 -20 -19 -18 -18 -18 -17
1 2 4 4 2 1 1 2 2 2 0 0 -2 -3 -4 -5 -5 -5 -7 -8 -8 -7 -9 -14 -17 -15 -13 -15 -19 -21 -21 -21 -23 -28 -27 -26 -23 -21 -20 -19 -18 -18 -18 -18
0 1 2 2 2 2 2 3 2 -1 -1 -2 -3 -3 -4 -5 -6 -7 -7 -6 -6 -9 -12 -16 -15 -13 -13 -18 -20 -21 -21 -21 -27 -28 -27 -23 -22 -20 -19 -19 -19 -18 -18 -18
-0 -0 0 1 1 1 2 3 2 0 -1 -1 -2 -3 -4 -4 -5 -6 -6 -7 -8 -11 -15 -15 -14 -12 -17 -20 -21 -20 -21 -25 -28 -28 -25 -22 -21 -20 -20 -19 -19 -18 -17 -18
-0 -1 -1 -1 -1 -0 0 1 1 1 1 -1 -2 -4 -4 -5 -6 -6 -7 -8 -11 -13 -15 -14 -12 -15 -18 -21 -21 -20 -22 -28 -28 -27 -23 -21 -21 -20 -19 -19 -19 -17 -17 -18
-1 -1 -1 -2 -2 -2 -2 -2 -1 -0 -1 -4 -4 -5 -5 -6 -6 -7 -7 -9 -11 -13 -14 -13 -12 -17 -20 -21 -20 -21 -26 -29 -28 -25 -22 -21 -20 -19 -19 -19 -18 -18 -18 -18
-1 -1 -1 -2 -3 -3 -3 -3 -3 -2 -1 -3 -5 -6 -6 -6 -7 -7 -8 -10 -11 -13 -13 -12 -15 -18 -20 -20 -20 -23 -29 -29 -26 -23 -21 -20 -20 -19 -19 -18 -17 -18 -18 -19
-3 -2 -1 -2 -2 -3 -4 -4 -4 -4 -3 -3 -3 -5 -6 -7 -7 -8 -8 -10 -12 -13 -13 -13 -17 -20 -20 -20 -21 -27 -29 -26 -23 -21 -20 -20 -19 -19 -18 -18 -19 -19 -19 -18

GFSNGP_850_dewp_057.txt.gz
Dewpoint
1 1 2 1 1 2 2 1 1 0 1 -1 -2 -2 -2 3 4 3 3 2 3 4 4 4 4 4 3 2 3 4 5 6 6 7 6 6 6 6 6 6 5 4 1 -4
1 1 2 3 2 1 2 2 2 1 2 -2 -2 -2 3 4 2 1 0 1 4 4 4 4 4 4 3 3 2 3 4 4 4 4 4 4 4 4 3 2 -0 -3 -3 -2
2 1 2 3 3 2 2 1 1 3 0 -1 1 4 4 2 1 -1 -1 -2 0 2 2 2 2 2 2 2 1 1 3 2 0 -0 0 -1 -1 -2 -3 -3 -3 -2 -1 -2
3 2 6 0 -1 1 1 0 0 0 -0 0 4 4 3 2 -0 -2 -3 -1 -1 -1 -1 -1 -1 -0 1 1 1 1 -0 -1 -2 -2 -1 -2 -3 -2 -2 -1 -1 -1 0 0
5 4 1 2 4 2 2 4 1 1 1 4 4 4 4 3 0 -3 -3 -1 -2 -2 -1 -1 -0 -0 0 1 2 1 1 1 1 -0 -1 -2 -1 -1 -0 -0 -0 0 -0 -0
4 4 4 0 2 2 2 6 2 3 4 4 4 6 5 1 -1 -3 -3 -3 -2 -2 -2 -1 -2 -1 -1 -1 -1 -1 -2 -3 -3 -3 -1 -0 0 0 -0 -1 -0 -0 -2 -13
3 4 1 -1 -2 3 5 3 2 3 4 5 4 4 2 1 -1 -3 -4 -4 -4 -4 -4 -4 -4 -3 -4 -5 -5 -6 -5 -4 -2 -1 -1 -0 -0 -1 -1 -1 -4 -14 -14 -15
5 5 3 -2 3 5 2 2 2 3 4 4 3 2 1 1 -0 -2 -3 -4 -5 -5 -4 -4 -4 -5 -2 -2 -3 -2 -2 -1 -1 -1 -1 -1 -1 -3 -12 -15 -15 -14 -15 -18
1 1 -3 -2 1 -1 0 2 2 2 3 3 3 1 1 1 0 -0 -1 -2 -3 -4 -2 -3 -2 -1 -1 -2 -1 -1 -1 -1 -1 -1 -2 -9 -15 -16 -16 -14 -14 -17 -21 -22
2 1 -0 -1 1 1 1 1 1 1 1 3 3 1 1 1 1 0 -0 -1 -1 -1 -1 -1 -1 -1 -1 -1 -1 -1 -1 -1 -2 -11 -15 -16 -16 -15 -14 -16 -20 -22 -22 -23
2 1 1 1 2 2 2 1 0 0 1 3 3 2 1 1 1 0 0 -0 0 0 0 -0 -0 -0 -0 -0 -1 -0 -3 -10 -14 -15 -16 -17 -16 -14 -16 -20 -21 -22 -23 -24
3 1 2 2 2 2 2 1 0 0 1 3 3 3 2 2 1 1 0 0 0 0 0 0 -0 -1 -1 -1 -1 -4 -10 -12 -16 -17 -17 -15 -14 -17 -21 -22 -22 -24 -25 -26
1 1 2 2 2 2 2 1 1 1 2 2 4 3 2 1 1 1 0 0 1 1 0 -0 -0 -1 -2 -1 -4 -9 -10 -15 -18 -18 -15 -14 -19 -21 -22 -22 -23 -25 -25 -23
2 3 3 2 2 2 1 1 1 1 2 3 4 4 2 0 0 -1 0 -0 -0 -0 0 -0 -1 -2 -4 -6 -9 -10 -13 -18 -18 -15 -13 -18 -21 -22 -23 -24 -25 -25 -24 -23
3 3 2 2 2 2 1 1 0 1 2 3 3 3 3 0 2 -1 -1 -2 -1 -2 -1 -1 -2 -5 -7 -9 -9 -10 -17 -19 -15 -13 -19 -21 -22 -23 -24 -25 -26 -25 -23 -22
-1 0 2 2 2 2 1 1 0 0 1 1 2 2 2 1 2 0 -1 -3 -1 -2 -2 -2 -5 -7 -7 -8 -10 -16 -19 -15 -14 -19 -21 -22 -22 -23 -26 -26 -24 -23 -21 -20
1 -0 0 3 2 2 2 1 0 -0 -0 -0 1 1 1 1 1 1 -1 -2 -2 0 -2 -5 -7 -7 -7 -10 -16 -19 -15 -13 -19 -21 -21 -22 -23 -27 -26 -25 -23 -21 -20 -19
1 1 1 1 2 3 2 1 0 -1 -1 -2 -2 -1 -1 -0 0 0 -1 -1 -0 -1 -5 -7 -8 -7 -9 -16 -18 -15 -13 -19 -21 -21 -22 -23 -27 -27 -25 -23 -21 -20 -19 -18
1 1 1 2 2 2 2 1 -1 -1 -1 -2 -3 -2 -2 -2 -0 -0 -2 -4 -2 -7 -6 -8 -8 -9 -14 -18 -15 -13 -18 -21 -21 -21 -23 -27 -27 -26 -23 -21 -20 -20 -19 -19
1 1 2 2 2 2 1 0 -1 -0 -1 -1 -2 -2 -1 -1 -0 -2 -1 -2 -5 -5 -7 -8 -8 -13 -18 -15 -13 -17 -20 -21 -21 -22 -27 -28 -26 -23 -21 -20 -20 -19 -19 -19
0 1 2 3 2 1 0 -0 -0 -0 0 -0 -1 -0 -0 -0 -2 -4 -5 -6 -7 -8 -8 -7 -10 -16 -16 -13 -15 -19 -21 -21 -21 -24 -28 -27 -25 -23 -21 -20 -20 -19 -19 -19
0 0 1 1 2 2 2 2 2 1 1 1 0 -1 -3 -5 -6 -6 -5 -4 -7 -8 -8 -9 -14 -17 -14 -13 -18 -20 -21 -21 -22 -28 -28 -27 -24 -22 -20 -20 -19 -19 -19 -18
-1 -1 0 1 1 1 2 2 2 1 -1 -0 -1 -2 -3 -4 -5 -4 -5 -7 -8 -7 -8 -12 -16 -15 -13 -15 -19 -21 -21 -21 -24 -28 -28 -25 -23 -21 -20 -20 -19 -19 -18 -18
-1 -1 -1 -1 -1 1 -0 1 2 2 -0 -3 -3 -3 -3 -4 -5 -6 -6 -7 -7 -7 -10 -14 -15 -14 -13 -17 -20 -21 -21 -21 -27 -29 -28 -24 -22 -20 -20 -19 -19 -19 -18 -18
-1 -1 -2 -2 -1 -2 -2 -2 -2 -0 1 0 -0 -3 -4 -5 -5 -5 -7 -7 -7 -9 -12 -15 -14 -13 -14 -18 -20 -21 -21 -23 -28 -29 -25 -22 -21 -20 -19 -19 -19 -18 -18 -19
-3 -2 -1 -1 -2 -3 -3 -3 -3 -3 -2 -1 -1 -2 -4 -5 -7 -7 -7 -7 -8 -10 -13 -14 -14 -13 -16 -19 -21 -20 -21 -26 -29 -27 -23 -21 -20 -20 -19 -19 -18 -18 -19 -19
-6 -3 -3 -2 -2 -2 -3 -4 -4 -4 -4 -3 -2 -2 -4 -6 -6 -7 -7 -7 -8 -10 -13 -14 -13 -13 -17 -20 -21 -20 -22 -28 -28 -24 -21 -20 -20 -19 -19 -19 -19 -19 -17 -15

GFSNGP_850_dewp_060.txt.gz
Dewpoint
0 1 1 1 2 2 0 0 1 -0 -0 -2 -2 -2 -2 -2 4 3 1 0 3 3 4 4 3 3 3 3 2 2 2 2 5 5 5 5 6 5 5 4 5 5 5 2
1 1 2 3 2 2 2 2 1 1 2 -1 -2 -2 -1 4 2 1 -0 -0 2 2 2 3 2 2 2 2 2 2 3 4 4 4 4 3 4 4 3 1 -0 -0 -0 0
1 1 2 3 2 2 2 1 1 3 1 -2 -1 0 4 3 1 -0 -1 -1 1 1 -0 1 1 1 1 1 -0 -0 1 2 2 2 2 2 1 -0 -0 -0 0 -0 -3 -4
3 2 5 -1 -1 0 1 0 0 -0 -1 -1 -1 4 3 2 1 -0 -2 -1 -1 -1 -1 0 -0 0 0 -0 -1 -1 -2 -1 -1 -0 0 -1 -2 -3 -5 -6 -4 -3 -1 -1
4 4 1 2 2 1 2 3 -0 -0 -1 -1 2 4 3 3 1 -1 -2 -1 -2 -2 -1 -0 0 0 1 1 0 -0 -2 -2 -2 -0 -0 -0 -1 -2 -1 -1 -1 -1 -0 -0
4 3 3 -1 2 1 2 8 1 1 1 3 4 6 4 2 -0 -2 -3 -3 -2 -2 -1 -1 -1 -1 -1 -0 -0 -1 -1 -1 -1 -1 -1 -1 -1 -1 -1 -1 -0 -1 -1 -4
3 4 0 -2 -1 1 6 4 2 3 3 4 4 4 3 1 -0 -2 -4 -4 -3 -3 -3 -3 -2 -3 -4 -4 -5 -5 -4 -3 -2 -1 -1 -1 -1 -1 -1 -1 -1 -7 -14 -15
4 5 3 -3 3 4 2 1 1 2 2 4 4 3 2 1 -0 -2 -3 -4 -4 -4 -4 -4 -5 -4 -3 -4 -3 -2 -2 -2 -1 -1 -1 -1 -1 -2 -8 -15 -14 -14 -16 -18
2 1 -3 -2 0 -1 -1 -0 1 2 1 3 3 2 2 1 0 -1 -2 -3 -4 -4 -3 -4 -2 -2 -2 -2 -2 -2 -1 -1 -1 -1 -3 -11 -15 -15 -15 -14 -15 -18 -20 -21
1 0 -1 -1 0 1 1 1 2 1 0 2 3 2 2 1 1 -0 -1 -2 -2 -2 -1 -1 -1 -1 -1 -1 -1 -1 -1 -1 -6 -14 -16 -16 -15 -14 -14 -17 -20 -21 -22 -23
1 1 1 2 2 2 2 2 1 0 0 1 3 2 2 1 1 0 -0 -0 -0 -0 -0 -1 -1 -1 -1 -1 -1 -1 -5 -13 -15 -16 -16 -16 -14 -15 -18 -21 -21 -22 -23 -24
2 0 2 1 2 2 2 2 1 1 1 2 3 3 2 2 1 1 0 0 0 -0 -0 -0 -0 -0 -0 -1 -1 -8 -12 -15 -17 -17 -16 -14 -15 -19 -21 -22 -22 -23 -24 -25
1 1 1 2 2 3 2 2 1 1 1 2 3 3 2 2 1 1 0 0 -0 -0 0 -0 -1 -1 -1 -2 -6 -10 -13 -17 -18 -17 -14 -14 -20 -21 -22 -22 -23 -24 -25 -24
3 3 3 2 2 2 2 1 1 1 1 2 3 4 4 2 2 1 0 0 1 0 -0 -1 -1 -1 -2 -5 -9 -11 -15 -18 -18 -14 -14 -20 -21 -22 -22 -23 -25 -26 -24 -23
3 0 1 2 2 2 2 1 1 1 1 2 3 3 4 3 2 2 0 -0 0 0 0 -0 -1 -3 -5 -7 -9 -11 -17 -18 -16 -13 -18 -21 -22 -22 -23 -27 -27 -25 -23 -21
-0 0 -0 -1 1 2 1 1 1 1 1 1 2 3 3 3 2 2 0 -0 -1 -1 -0 -1 -3 -5 -7 -8 -9 -13 -18 -18 -13 -17 -21 -22 -22 -23 -27 -27 -25 -23 -22 -21
0 0 0 0 0 2 2 2 1 1 -0 0 1 2 2 2 1 1 -0 -0 -2 -2 -2 -1 -4 -7 -7 -7 -10 -16 -19 -14 -15 -20 -21 -22 -23 -28 -27 -25 -23 -21 -21 -20
0 1 1 1 1 1 1 2 2 1 -0 -0 -0 0 1 1 1 1 1 -0 -3 -1 -1 -2 -6 -7 -6 -8 -14 -19 -16 -14 -19 -21 -21 -22 -27 -28 -26 -23 -22 -21 -20 -20
0 1 1 1 2 2 2 1 2 2 -1 -1 -2 -1 -1 -0 0 1 1 -1 -0 0 -0 -4 -7 -7 -7 -10 -17 -17 -13 -18 -21 -21 -22 -24 -28 -27 -24 -23 -22 -21 -20 -20
0 0 1 2 2 2 2 2 2 0 -1 -2 -2 -3 -2 -1 -1 -0 -0 -0 0 1 -1 -6 -8 -7 -7 -13 -18 -14 -16 -20 -21 -21 -22 -28 -28 -26 -24 -22 -21 -21 -20 -20
-0 -0 1 1 1 0 -0 -0 -1 -1 -1 -0 -2 -2 -2 -2 -1 -1 -0 -0 0 -0 -7 -6 -7 -7 -9 -17 -15 -14 -18 -21 -21 -21 -24 -28 -28 -25 -23 -21 -21 -20 -20 -20
-1 -0 0 0 0 1 1 0 -0 -0 -0 -0 -0 -1 -1 -1 -0 -0 -0 0 -0 -5 -7 -7 -7 -8 -14 -17 -14 -16 -20 -21 -21 -21 -27 -29 -28 -25 -23 -21 -20 -20 -20 -19
-1 -1 -1 -0 0 1 1 1 1 1 0 1 1 1 1 -0 -1 -1 -2 -4 -6 -7 -7 -8 -7 -10 -16 -15 -14 -18 -20 -21 -21 -22 -28 -29 -27 -24 -22 -21 -20 -20 -20 -19
-1 -2 -2 -2 -2 -0 -1 -0 1 1 -0 -2 -1 -2 -2 -3 -4 -4 -5 -5 -5 -7 -8 -8 -8 -14 -16 -14 -15 -18 -21 -21 -21 -24 -29 -29 -25 -22 -21 -20 -20 -20 -20 -19
-3 -3 -1 -1 -2 -2 -2 -2 -1 -0 1 1 -1 -3 -4 -4 -5 -5 -4 -5 -6 -7 -8 -8 -11 -15 -15 -13 -15 -19 -21 -21 -21 -26 -29 -27 -23 -21 -20 -20 -20 -20 -19 -19
-11 -5 -3 -2 -2 -2 -3 -3 -3 -3 -3 -2 -0 0 0 -1 -4 -5 -6 -7 -7 -8 -7 -8 -12 -15 -14 -13 -16 -19 -21 -21 -21 -28 -29 -25 -22 -21 -20 -20 -20 -19 -19 -19
-16 -14 -11 -5 -3 -2 -2 -2 -3 -4 -4 -4 -3 -2 -1 -1 -2 -6 -3 -7 -7 -7 -8 -10 -12 -14 -14 -13 -17 -20 -21 -20 -23 -29 -26 -23 -22 -20 -20 -20 -19 -19 -17 -13

GFSNGP_850_dewp_063.txt.gz
Dewpoint
-0 1 1 1 2 1 -0 -0 2 -0 -0 -2 -3 -3 -2 -2 2 3 2 1 2 3 2 2 1 1 1 2 2 2 2 3 4 4 4 4 4 4 4 4 4 4 4 4
1 1 2 3 2 2 1 1 0 -0 1 -2 -2 -2 -1 3 3 2 0 0 1 0 1 0 0 1 1 2 2 1 1 2 3 4 3 3 3 3 2 2 2 1 1 -2
2 1 2 3 2 2 2 1 1 3 1 -2 -1 -1 4 3 2 1 -0 -1 -0 -1 -0 -0 0 0 1 1 2 1 1 1 1 1 2 2 1 1 1 0 0 -1 -2 -3
3 1 5 -2 -2 0 1 0 0 0 -1 -1 -2 1 3 2 2 1 -1 -1 -1 -1 -1 -0 0 0 1 1 2 1 -0 -1 -1 -1 -1 -0 -0 -1 -0 -1 -1 -1 -1 -1
3 4 0 3 2 1 2 3 -0 -0 -1 -1 -0 4 3 3 1 -1 -2 -1 -1 -1 -1 -0 -0 -0 0 1 1 1 -0 -1 -1 -1 -1 -1 -1 -1 -2 -2 -2 -2 -2 -2
2 2 3 -2 2 1 1 7 2 -0 1 1 4 6 5 2 0 -1 -2 -2 -2 -1 -1 -2 -2 -2 -2 -1 -0 -0 -0 -1 -1 -1 -2 -2 -2 -2 -2 -2 -2 -2 -2 -2
3 2 1 -3 -2 -1 6 6 1 2 3 3 4 4 3 1 -0 -2 -3 -3 -2 -3 -3 -3 -4 -4 -3 -3 -4 -2 -2 -1 -1 -2 -2 -1 -1 -1 -1 -1 -2 -7 -15 -16
4 3 2 -3 1 4 3 1 -0 1 2 3 4 3 2 1 -0 -1 -2 -3 -3 -3 -3 -4 -3 -3 -3 -2 -2 -2 -1 -1 -2 -1 -1 -1 -1 -4 -13 -14 -15 -16 -18 -19
0 1 -3 -2 -1 -1 -1 -1 1 2 1 2 3 2 2 1 1 -0 -2 -3 -3 -4 -4 -2 -2 -2 -2 -2 -2 -2 -2 -1 -1 -1 -5 -13 -15 -15 -14 -15 -18 -20 -21 -22
1 -0 -1 -1 1 0 1 2 2 1 0 1 3 2 2 1 1 -0 -1 -3 -3 -2 -1 -1 -1 -1 -1 -1 -1 -1 -1 -1 -8 -15 -16 -15 -14 -14 -17 -20 -21 -22 -22 -23
1 0 0 1 2 2 4 2 2 1 0 1 2 2 2 2 1 0 -1 -1 -1 -1 -1 -1 -1 -1 -1 -1 -1 -1 -7 -15 -16 -17 -16 -15 -14 -17 -20 -21 -22 -23 -24 -24
2 0 1 1 1 1 2 2 2 1 1 1 2 3 3 2 1 0 0 -0 -0 -1 -0 -0 -0 -0 -0 -1 -2 -10 -15 -17 -17 -17 -15 -14 -18 -20 -21 -22 -23 -24 -26 -27
1 1 2 2 2 2 2 2 2 1 1 1 2 2 3 3 2 0 0 0 -0 -0 -0 0 0 -1 -2 -3 -9 -12 -16 -18 -18 -16 -14 -17 -20 -21 -22 -22 -24 -26 -26 -25
2 2 2 2 2 2 2 2 1 1 1 1 2 2 2 3 3 1 0 0 -0 -0 -0 -1 -1 -1 -2 -5 -10 -12 -16 -18 -17 -14 -16 -20 -21 -22 -22 -24 -27 -26 -25 -23
2 2 0 0 0 1 2 2 1 1 1 1 2 3 2 3 2 2 1 0 0 -0 -0 -1 -1 -1 -2 -6 -9 -12 -17 -18 -16 -14 -19 -21 -22 -22 -25 -28 -27 -25 -23 -22
-0 -0 -0 0 0 0 1 2 1 1 1 1 1 3 3 3 2 2 1 1 1 0 -0 -1 -1 -2 -4 -7 -8 -12 -18 -18 -14 -17 -20 -21 -22 -23 -28 -28 -25 -23 -22 -21
-1 -0 0 0 0 0 0 1 2 2 1 1 0 2 2 2 2 2 1 0 0 0 0 0 -1 -4 -6 -7 -9 -14 -18 -17 -14 -18 -21 -21 -22 -28 -28 -26 -24 -23 -22 -21
-1 -0 -0 0 1 1 1 1 1 2 2 2 -0 0 1 2 2 2 1 1 -0 -1 -0 -0 -2 -5 -7 -7 -9 -16 -18 -15 -15 -20 -21 -22 -25 -29 -28 -25 -23 -23 -22 -21
-0 0 0 1 1 2 1 2 2 1 1 2 -0 -0 0 1 1 1 1 0 -0 -0 -0 -1 -3 -7 -8 -7 -11 -17 -18 -14 -18 -21 -21 -22 -28 -29 -27 -24 -23 -22 -21 -21
-0 -0 0 0 1 1 1 1 2 2 2 0 -1 -1 -1 -1 -0 0 0 -0 -0 0 -0 -0 -1 -7 -8 -8 -12 -18 -15 -15 -19 -21 -21 -23 -29 -29 -27 -24 -22 -22 -21 -21
-1 -1 -1 -0 0 -0 -1 -1 -0 -0 -1 -2 -2 -2 -2 -2 -2 -1 -1 -1 -0 -1 -1 -0 -1 -8 -8 -9 -14 -17 -14 -16 -20 -21 -21 -24 -29 -29 -26 -24 -22 -21 -21 -21
-2 -1 -1 -0 -0 0 0 -1 -2 -2 -1 -1 -0 -1 -2 -2 -2 -2 -1 -1 -1 -1 -1 -0 -7 -8 -8 -9 -16 -16 -14 -18 -21 -21 -21 -26 -29 -29 -26 -24 -22 -21 -21 -21
-1 -1 -1 -1 -0 -0 -0 -0 0 -0 -0 -0 -0 -0 -1 -1 -1 -1 -0 -1 -1 -0 -0 -5 -8 -8 -8 -11 -16 -15 -14 -18 -21 -21 -21 -26 -29 -29 -25 -22 -21 -21 -21 -20
-3 -2 -1 -1 -2 -2 -1 -1 -1 -0 -1 -2 -1 -1 -1 -0 0 -0 -0 -0 0 -0 -4 -7 -8 -8 -8 -12 -16 -14 -15 -19 -21 -21 -21 -27 -30 -28 -24 -22 -21 -21 -21 -20
-13 -7 -4 -2 -2 -2 -3 -3 -3 -2 -0 -0 -1 -3 -3 -4 -4 -4 -4 -4 -4 -6 -7 -8 -9 -8 -8 -14 -16 -14 -16 -19 -21 -21 -22 -29 -29 -26 -23 -21 -21 -21 -20 -19
-18 -17 -14 -7 -4 -3 -2 -2 -3 -4 -3 -3 -2 -1 -1 -1 -2 -4 -5 -5 -5 -5 -7 -8 -8 -8 -9 -15 -15 -14 -16 -19 -21 -20 -23 -29 -28 -24 -22 -21 -21 -21 -20 -19
-18 -18 -19 -18 -15 -9 -4 -3 -2 -3 -3 -4 -4 -4 -2 -1 -1 -1 -3 -6 -6 -6 -7 -8 -8 -8 -11 -15 -14 -14 -17 -20 -21 -21 -26 -29 -26 -23 -22 -21 -21 -20 -19 -14

GFSNGP_850_dewp_066.txt.gz
Dewpoint
0 1 1 2 3 1 3 2 5 -1 -2 -3 -4 -3 -1 -0 2 3 1 0 -0 2 1 1 1 0 1 2 2 2 2 3 3 3 4 4 4 4 4 4 4 4 4 4
3 1 1 3 2 2 1 1 0 -0 0 -3 -3 -2 -1 3 3 2 -0 -1 -1 1 0 1 1 1 1 1 1 1 1 2 3 3 3 3 3 3 2 2 2 2 1 -1
4 1 2 4 2 2 1 0 0 2 -0 -2 -2 -2 0 3 2 1 -0 -1 -1 -0 0 0 0 1 0 1 0 -0 0 1 1 1 1 1 1 1 1 1 0 -0 -1 -2
3 2 4 -1 -2 -0 1 -0 -0 -1 -1 -2 -2 -1 1 2 2 1 0 -2 -2 -1 -1 -0 0 0 1 1 -0 -0 -0 -0 -0 0 0 1 0 -0 -0 -1 -1 -2 -2 -2
3 3 0 3 1 1 2 5 -0 -1 -1 -1 -0 3 3 3 2 1 -1 -2 -2 -1 -1 -0 -0 -1 -0 0 0 0 1 0 -0 -0 -0 -1 -1 -1 -1 -2 -2 -2 -2 -2
4 4 2 1 2 1 0 8 2 -1 0 2 3 6 5 2 1 -0 -2 -2 -2 -1 -1 -2 -2 -2 -1 -1 -0 0 -0 -0 -1 -1 -2 -2 -2 -2 -1 -2 -2 -2 -2 -2
2 3 -0 -3 -3 -1 6 7 2 1 2 3 4 3 3 2 0 -1 -2 -2 -2 -2 -3 -3 -3 -3 -2 -3 -1 -1 -1 -1 -2 -1 -1 -2 -2 -2 -2 -2 -2 -6 -14 -17
2 2 3 -3 2 4 3 1 0 1 2 3 4 3 2 1 -0 -1 -2 -3 -3 -3 -3 -3 -3 -4 -3 -2 -1 -1 -1 -1 -1 -2 -2 -2 -2 -7 -11 -14 -16 -18 -19 -19
-0 0 -2 -2 0 -0 -0 0 1 2 2 2 3 3 2 1 0 -0 -2 -3 -3 -3 -3 -2 -3 -2 -2 -1 -1 -1 -1 -1 -2 -2 -5 -14 -15 -14 -15 -18 -20 -21 -21 -22
1 -0 -1 -2 -0 1 1 2 2 1 1 1 2 2 2 1 1 -1 -1 -3 -3 -3 -1 -2 -2 -2 -2 -2 -2 -2 -1 -2 -8 -15 -16 -14 -14 -17 -20 -21 -22 -22 -23 -23
1 -0 -0 1 1 2 1 3 3 2 1 1 1 2 2 2 1 -0 -1 -2 -2 -1 -1 -1 -1 -1 -1 -1 -1 -1 -6 -15 -16 -16 -15 -15 -17 -20 -21 -22 -23 -23 -24 -26
-0 -1 1 0 1 1 1 1 2 2 1 1 2 2 2 2 1 0 -0 -1 -1 -1 -1 -1 -1 -1 -1 -1 -1 -7 -16 -17 -17 -16 -14 -17 -20 -21 -22 -22 -24 -27 -28 -27
0 1 1 1 1 2 2 2 2 2 1 1 2 2 2 3 1 0 0 -0 -1 -1 -1 -1 -0 -0 -1 -2 -8 -14 -17 -18 -17 -15 -15 -19 -21 -22 -22 -24 -27 -28 -26 -25
2 1 2 2 2 2 2 2 2 1 1 1 1 2 2 2 2 1 0 0 -0 -0 -0 -0 -0 -1 -2 -6 -11 -14 -17 -18 -17 -14 -17 -20 -22 -22 -23 -26 -28 -26 -25 -23
1 1 1 1 1 1 0 2 2 1 1 1 1 2 2 2 3 2 0 0 -0 -0 -0 -1 -1 -2 -2 -7 -10 -13 -18 -18 -16 -14 -19 -21 -22 -22 -26 -29 -27 -25 -24 -23
0 0 -0 -0 0 0 0 0 1 2 1 1 1 2 2 2 2 3 1 0 0 -0 -0 -1 -1 -1 -3 -6 -9 -12 -17 -18 -15 -15 -20 -22 -22 -23 -29 -28 -26 -24 -23 -23
-0 -0 -0 -0 -0 0 0 0 0 0 2 1 1 1 2 2 2 3 2 1 0 0 -0 -0 -1 -1 -2 -5 -8 -10 -16 -18 -15 -16 -20 -22 -22 -25 -29 -28 -25 -24 -23 -22
-1 -1 -1 -0 -0 0 0 1 1 1 1 2 2 1 1 2 2 3 2 1 0 1 1 0 -0 -1 -2 -5 -8 -10 -16 -18 -14 -17 -21 -22 -22 -28 -29 -28 -25 -24 -23 -22
-1 -0 -0 0 0 0 1 1 1 1 1 1 1 2 1 0 1 2 2 1 1 0 0 0 -0 -1 -4 -6 -8 -10 -17 -18 -14 -18 -21 -22 -22 -29 -29 -28 -26 -24 -23 -22
-1 -1 -1 -0 -0 0 0 -0 0 1 2 1 1 1 -0 -0 0 1 1 1 1 1 0 0 -0 -1 -3 -8 -8 -11 -17 -17 -14 -18 -21 -21 -22 -29 -30 -28 -26 -24 -23 -22
-1 -1 -1 -1 -0 -0 -0 -1 -2 -1 1 1 0 -1 -2 -1 -1 -0 0 0 0 -0 -0 -0 -0 -0 -5 -9 -8 -11 -17 -16 -15 -19 -21 -21 -23 -29 -30 -29 -26 -24 -22 -22
-1 -2 -1 -1 -1 -1 -1 -0 -1 -2 -3 -3 -3 -2 -3 -2 -2 -2 -1 -0 -0 -1 -1 -1 -1 -0 -2 -8 -8 -12 -17 -15 -15 -19 -21 -21 -23 -28 -30 -29 -25 -23 -22 -21
-2 -2 -2 -1 -1 -1 -1 -1 -1 -1 -1 -1 -1 -1 -1 -1 -1 -1 -1 -1 -1 -2 -1 -1 -1 -1 -3 -9 -9 -12 -17 -15 -16 -19 -21 -21 -22 -28 -30 -28 -25 -22 -22 -21
-12 -7 -5 -3 -2 -1 -1 -1 -1 -1 -1 -1 -1 -1 -1 -1 -1 -1 -1 -1 -1 -1 -1 -1 -1 -1 -5 -7 -10 -12 -16 -14 -16 -20 -21 -21 -22 -29 -30 -27 -24 -22 -22 -21
-18 -16 -15 -11 -5 -3 -2 -1 -3 -3 -2 -1 -1 -1 -1 -1 -1 -1 -1 -1 -1 -1 -1 -1 -1 -3 -8 -9 -9 -13 -16 -14 -16 -20 -21 -21 -23 -29 -28 -25 -23 -22 -21 -21
-20 -20 -20 -19 -17 -13 -5 -3 -3 -3 -3 -3 -3 -2 -1 -2 -2 -3 -4 -3 -2 -1 -1 -2 -7 -9 -8 -9 -9 -13 -15 -14 -16 -19 -21 -21 -24 -29 -27 -24 -23 -22 -22 -21
-21 -20 -19 -19 -18 -19 -16 -10 -5 -3 -3 -3 -4 -4 -4 -2 -2 -2 -2 -5 -5 -6 -6 -7 -8 -8 -8 -9 -10 -14 -15 -14 -16 -20 -21 -21 -25 -28 -25 -24 -22 -22 -21 -21

GFSNGP_850_dewp_069.txt.gz
Dewpoint
0 0 1 2 3 2 4 3 6 -2 -2 -4 -4 -4 -3 -0 2 3 2 1 1 1 1 0 -0 0 1 1 1 1 2 2 3 3 3 3 3 4 4 4 4 4 4 4
4 0 1 3 1 2 1 0 -0 -1 -1 -4 -5 -2 -1 1 3 3 2 1 -0 0 -0 -0 -0 1 1 1 1 1 1 1 2 3 3 3 3 3 3 3 3 2 2 1
4 1 2 4 2 1 1 -0 -0 2 -1 -2 -2 -2 -1 1 3 2 0 -0 -1 -0 -0 -0 -0 0 0 1 0 1 1 1 1 1 1 2 1 1 1 0 0 -0 -1 -1
2 1 5 0 -2 -0 0 -0 -1 -1 -2 -2 -2 -1 0 1 2 1 -0 -1 -1 -1 -0 -0 -0 1 1 1 1 0 -0 -0 -0 0 1 0 -0 -1 -1 -1 -1 -2 -2 -1
3 2 0 3 1 0 2 4 -1 -1 -2 -1 0 2 3 2 1 -0 -0 -2 -2 -1 -1 0 -0 -0 0 0 0 0 -0 -1 -0 -0 -1 -1 -1 -1 -1 -2 -2 -2 -2 -2
3 4 2 4 2 1 1 7 1 -0 1 2 3 5 5 1 2 1 -1 -2 -2 -1 -1 -1 -1 -1 -1 -0 0 0 -0 -1 -1 -2 -2 -2 -1 -2 -2 -2 -2 -2 -2 -7
2 2 0 -2 -2 -1 6 7 2 1 1 1 3 3 3 2 2 -1 -2 -2 -1 -1 -2 -2 -2 -2 -1 -1 -0 -1 -1 -2 -2 -2 -2 -2 -1 -2 -2 -2 -4 -13 -16 -16
1 2 3 1 1 2 3 2 1 2 2 3 3 3 2 2 1 -1 -1 -1 -2 -2 -2 -3 -3 -3 -3 -1 -1 -1 -2 -1 -1 -1 -1 -2 -2 -5 -11 -15 -18 -19 -20 -21
-1 0 -1 -2 0 -1 -0 1 2 2 2 2 3 2 2 1 0 -0 -1 -1 -2 -3 -3 -2 -3 -3 -2 -1 -1 -1 -1 -2 -2 -2 -6 -14 -14 -15 -18 -19 -20 -21 -22 -22
1 -2 -2 -2 -1 2 1 2 2 2 1 1 2 2 1 1 1 0 -1 -1 -2 -2 -3 -2 -2 -2 -1 -1 -1 -1 -1 -2 -6 -15 -15 -14 -15 -18 -20 -21 -22 -22 -22 -22
-0 -1 -1 -0 -0 2 1 1 2 3 3 1 2 2 2 2 2 0 -1 -1 -2 -2 -1 -2 -2 -1 -2 -2 -2 -2 -2 -12 -16 -16 -15 -15 -19 -20 -21 -22 -23 -23 -26 -27
-0 -2 -2 0 2 2 1 1 2 2 2 2 1 2 2 2 2 0 -1 -1 -2 -1 -2 -2 -1 -2 -1 -1 -1 -4 -14 -17 -16 -15 -15 -17 -20 -21 -22 -23 -26 -29 -29 -27
-2 1 1 2 2 1 1 1 2 2 1 1 1 2 2 2 2 1 -0 -1 -1 -1 -1 -1 -1 -1 -1 -1 -3 -13 -17 -17 -17 -15 -15 -19 -20 -21 -22 -25 -29 -29 -27 -26
1 1 1 1 2 1 1 1 2 2 1 1 1 2 2 2 3 2 0 -0 -1 -1 -1 -1 -1 -1 -1 -2 -8 -15 -17 -18 -17 -15 -16 -20 -22 -22 -23 -27 -29 -28 -26 -25
1 1 1 1 1 1 1 1 1 2 1 1 1 1 2 2 2 2 1 -0 -1 -1 -1 -1 -0 -1 -2 -4 -11 -15 -18 -18 -17 -15 -16 -20 -22 -22 -24 -29 -29 -27 -25 -25
1 0 1 0 0 1 1 0 1 1 1 1 1 1 2 2 2 2 2 1 0 -0 -1 -0 -0 -1 -2 -4 -9 -13 -17 -18 -18 -15 -17 -20 -22 -22 -25 -30 -29 -27 -25 -25
-0 0 0 0 0 -0 0 1 1 0 0 0 1 1 1 2 2 2 2 2 1 0 -0 -0 -1 -1 -2 -3 -7 -10 -14 -18 -18 -15 -16 -20 -22 -22 -26 -30 -29 -27 -25 -25
-1 -1 -1 -1 -0 -0 0 0 1 1 1 1 1 1 1 1 1 2 2 2 2 0 0 0 0 -1 -1 -2 -5 -8 -10 -16 -18 -15 -16 -20 -22 -22 -26 -30 -30 -28 -26 -24
-1 -1 -0 -0 -0 -0 0 0 1 1 1 1 1 1 1 2 1 1 2 2 2 1 1 1 1 0 -1 -2 -3 -6 -9 -12 -18 -16 -15 -20 -22 -22 -25 -30 -30 -28 -26 -24
-1 -1 -1 -1 -1 -1 -0 -0 -0 -1 -0 0 1 1 1 1 1 0 1 2 2 2 1 1 0 -0 -0 -1 -2 -5 -8 -11 -17 -16 -15 -20 -22 -22 -24 -29 -30 -29 -26 -24
-1 -2 -2 -2 -1 -1 -1 -1 -1 -2 -2 -0 1 1 1 0 -0 -0 0 1 1 1 1 0 -0 -0 -0 -0 -1 -6 -8 -10 -17 -16 -15 -20 -21 -22 -23 -29 -30 -29 -27 -24
-1 -1 -1 -1 -1 -2 -2 -1 -1 -1 -2 -3 -3 -2 -2 -2 -2 -1 -1 -1 -0 0 0 -0 -0 -1 -1 -1 -1 -6 -8 -9 -16 -16 -15 -19 -21 -21 -23 -27 -30 -30 -27 -24
-7 -6 -5 -3 -1 -1 -2 -2 -1 -1 -1 -1 -1 -2 -2 -2 -2 -2 -1 -1 -1 -1 -1 -1 -1 -1 -1 -1 -1 -4 -5 -9 -16 -16 -15 -19 -21 -21 -22 -26 -30 -29 -26 -24
-15 -15 -14 -11 -6 -3 -2 -1 -1 -1 -1 -1 -1 -1 -1 -1 -1 -1 -1 -1 -1 -2 -2 -1 -2 -2 -2 -2 -1 -1 -3 -9 -15 -15 -15 -19 -21 -21 -21 -26 -30 -29 -26 -23
-18 -19 -20 -20 -18 -15 -9 -3 -3 -2 -3 -2 -1 -1 -1 -1 -1 -1 -1 -1 -2 -2 -2 -2 -2 -2 -2 -2 -2 -1 -3 -9 -15 -15 -15 -18 -21 -21 -21 -26 -29 -28 -25 -23
-19 -20 -20 -19 -19 -19 -18 -13 -7 -4 -3 -3 -3 -3 -2 -2 -1 -1 -1 -1 -1 -1 -1 -1 -2 -2 -2 -1 -1 -2 -9 -11 -15 -15 -15 -18 -20 -21 -21 -26 -28 -26 -24 -23
-22 -23 -21 -20 -18 -17 -17 -18 -18 -14 -8 -4 -3 -3 -4 -4 -3 -2 -2 -2 -2 -1 -1 -2 -2 -2 -2 -2 -2 -9 -10 -11 -15 -15 -15 -18 -20 -21 -21 -25 -27 -26 -24 -22